Other Public Products
Issued by NWS Grand Forks, ND

Home | Current Version | Previous Version | Graphics & Text | Print | Product List | Glossary On
Versions: 1 2 3 4 5 6 7 8 9 10 11 12 13 14 15 16 17 18 19 20 21 22 23 24 25 26 27 28 29 30 31 32 33 34 35 36 37 38 39 40 41 42 43 44 45 46 47 48 49 50
000
FPUS83 KFGF 221131
OPUFGF
PRAIRIE TO PINES WEATHER ROUNDUP
NATIONAL WEATHER SERVICE EASTERN NORTH DAKOTA/GRAND FORKS ND
600 AM CDT SUN APR 22 2018

 **SATELLITE DATA USED TO AUGMENT SKY COVER AT AUTOMATED STATIONS**
 *****  WEATHER ACROSS EASTERN NORTH DAKOTA  *****

CITY           SKY/WX    TMP DP  RH WIND       PRES   REMARKS
GRAND FORKS    FAIR      35  35 100 S10       30.21F
GRND FORKS AFB FAIR      37  34  90 S12       30.20F
GRND FORKS NWS   N/A     37  35  91 S6        30.19F
BUXTON           N/A     36  36  99 S10         N/A
DEVILS LAKE    FAIR      37  31  78 S9        30.18F
FARGO          FAIR      37  33  85 S7        30.27F
WAHPETON ARPT  FAIR      34  32  93 SE7       30.30R
$$

 *****  WEATHER ACROSS CENTRAL AND WESTERN NORTH DAKOTA  *****

CITY           SKY/WX    TMP DP  RH WIND       PRES   REMARKS
JAMESTOWN      FAIR      34  31  88 S10       30.19F
BISMARCK       FAIR      39  34  82 SW3       30.18F
MINOT          FAIR      42  36  79 SW17G25   30.06F
MINOT AFB      FAIR      40  36  85 SW12      30.05S
GARRISON         N/A     34  32  92 S8        30.11F
WILLISTON      FAIR      38  27  64 CALM      30.08R
DICKINSON      FAIR      34  33  96 SW6       30.09S
HETTINGER      FAIR      35  32  88 CALM      30.14S
$$

 *****  OTHER OBSERVATIONS NORTHEAST NORTH DAKOTA  *****

CITY           SKY/WX    TMP DP  RH WIND       PRES   REMARKS
WALHALLA       FAIR      45  32  61 S16       30.14F
LANGDON        NOT AVBL
CAVALIER         N/A     41  32  70 S9        30.17S
GRAFTON        NOT AVBL
CANDO          FAIR      36  36 100 S13       30.15S
FORT TOTTEN      N/A     38  31  76 S8        29.95S
ROLLA          FAIR      36  36 100 SW18      30.07R
RUGBY          NOT AVBL
 ***** THE ABOVE OBSERVATIONS ARE NON NWS ARE NOT QUALITY
        CONTROLLED AND MAY MIS-REPORT RAIN FOR SNOW...
$$

 *****  OTHER OBSERVATIONS SOUTHEAST NORTH DAKOTA *****

CITY           SKY/WX    TMP DP  RH WIND       PRES   REMARKS
COOPERSTOWN    FAIR      36  34  93 S8        30.21S
VALLEY CITY    NOT AVBL
OAKES            N/A     30  30 100 S12       30.25F WCI  21
GWINNER          N/A     32  32 100 CALM      30.26S
SHEYENNE NWR     N/A     29  29 100 SE2       29.95S
BUFFALO          N/A     38  31  77 E10         N/A
WYNDMERE       NOT AVBL
 ***** THE ABOVE OBSERVATIONS ARE NON NWS ARE NOT QUALITY
       CONTROLLED AND MAY MIS-REPORT RAIN FOR SNOW...
$$

  *****  WEATHER ACROSS NORTHERN MINNESOTA  *****

CITY           SKY/WX    TMP DP  RH WIND       PRES   REMARKS
FLAG ISLAND    FAIR      34  30  86 SE7       30.22S
WARROAD        FAIR      39  36  87 S3        30.24R
ROSEAU         FAIR      39  34  81 S8        30.23R
HALLOCK        FAIR      39  37  93 S12       30.20R
THF RVR FALLS  FAIR      37  33  85 S10       30.25F
HALSTAD        NOT AVBL
FOSSTON        FAIR      32  28  86 S8        30.27F WCI  25
BAUDETTE       FAIR      37  30  75 S3        30.25F
WASKISH        FAIR      39  30  70 S5        30.27F
CROOKSTON      FAIR      37  34  87 S9        30.25S
$$
  *****  WEATHER ACROSS CENTRAL AND WEST MINNESOTA  *****

CITY           SKY/WX    TMP DP  RH WIND       PRES   REMARKS
BEMIDJI        FAIR      31  27  84 CALM      30.29S
PARK RAPIDS    FAIR      33  28  81 CALM      30.29S
WADENA         FAIR      30  30 100 CALM      30.30S
DETROIT LAKES  FAIR      34  32  93 CALM      30.30R
MOORHEAD       FAIR      32  30  93 S6        30.28S
FERGUS FALLS   FAIR      36  30  80 SE6       30.29R
ELBOW LAKE     FAIR      35  32  88 E7        30.31R
MORRIS MN      FAIR      34  32  93 SE6       30.30R FOG
STAPLES        FAIR      28  27  93 CALM      30.32R
WHEATON        FAIR      32  30  93 SE6       30.31S
$$
  *****  WEATHER ELSEWHERE ACROSS MINNESOTA  *****

CITY           SKY/WX    TMP DP  RH WIND       PRES   REMARKS
DULUTH         FAIR      31  19  61 CALM      30.33R
INTRNTL FALLS  FAIR      33  24  69 CALM      30.28F
ELY            FAIR      25  19  80 CALM      30.33R
CLOQUET        FAIR      27  18  69 CALM      30.33S
BRAINERD       FAIR      28  23  81 CALM      30.32S
HIBBING        FAIR      23  21  92 CALM      30.33R
ALEXANDRIA     FAIR      33  29  85 SE3       30.31S
SAINT CLOUD    FAIR      28  27  96 CALM      30.33R
MINNEAPOLIS    FAIR      40  32  73 SE3       30.34R
$$

  *****  WEATHER ACROSS SOUTH DAKOTA  *****

CITY           SKY/WX    TMP DP  RH WIND       PRES   REMARKS
SIOUX FALLS    FAIR      34  31  88 NE6       30.28R
BROOKINGS      CLOUDY    35  30  82 SE5       30.29R
WATERTOWN      FAIR      31  28  89 CALM      30.27R
HURON          NOT AVBL
SISSETON         N/A     32  30  92 SE3       30.27S
ABERDEEN       FAIR      29  29 100 S3        30.26S
MITCHELL       CLOUDY    38  36  92 E6        30.28R
PIERRE         FAIR      35  33  92 S7        30.20F
MOBRIDGE       FAIR      35  32  88 SE10      30.17S
RAPID CITY     FAIR      33  31  92 SE6       30.11S
$$

  *****  SOME WEATHER IN NEARBY STATES *****

CITY           SKY/WX    TMP DP  RH WIND       PRES   REMARKS
GLASGOW MT     FAIR      41  27  57 SW5       30.12R
GREAT FALLS MT FAIR      37  23  56 SW10      30.14R
CHEYENNE WY    FAIR      29  29 100 W8        30.14R WCI  21
SCOTTSBLUFF NE FAIR      33  33 100 E8        30.15S
OMAHA NE       MOCLDY    44  31  60 N6        30.21S
DES MOINES IA  CLOUDY    47  31  53 E8        30.24S
DAVENPORT IA   FAIR      43  22  43 E12       30.31R
CHICAGO IL     MOCLDY    42  24  49 N8        30.34R
EAU CLAIRE WI  FAIR      28  26  92 CALM      30.35R
LA CROSSE WI   FAIR      36  30  79 SE3       30.36R
$$

  *****  SOME NATIONAL WEATHER *****

CITY           SKY/WX    TMP DP  RH WIND       PRES   REMARKS
LA GUARDIA NY  FAIR      47  24  40 W3        30.41R
RALEIGH NC     FAIR      43  40  89 CALM      30.37R
ATLANTA GA     CLOUDY    60  54  80 E10       30.24R
NEW ORLEANS LA LGT RAIN  69  68  96 SE16      29.94F FOG
OKLAHOMA CITY  FAIR      43  41  93 NW16      30.07R
ALBUQUERQUE NM FAIR      46  32  58 N7        30.18R
SALT LAKE CITY FAIR      47  33  58 SE6       30.13F
LOS ANGELES CA FAIR      58  53  84 CALM      29.94F
BOISE ID       FAIR      43  24  47 W5        30.14S
SEATTLE WA     FAIR      45  37  73 N10       30.40S
$$

*** WEATHER ACROSS MANITOBA...SASKATCHEWAN AND ONTARIO ***
                ***ONTARIO***

CITY           SKY/WX    TMP DP  RH WIND       PRES   REMARKS
GERALDTON      PTCLDY    23  18  80 SW2       30.32S
THUNDER BAY    MOCLDY    25  23  93 W5        30.36R WCI  19
SIOUX LOOKOUT  MOCLDY    34  23  64 SE7       30.25R
TORONTO        CLEAR     37  23  56 W5        30.42R
BIG TROUT LK   CLEAR     32  25  74 SE3       30.15F
PICKLE LAKE    MOCLDY    37  23  56 S9        30.23
DRYDEN         CLEAR     37  25  60 S10       30.24S
KENORA         MOCLDY    41  32  70 S8        30.21
$$
                *** MANITOBA***

CITY           SKY/WX    TMP DP  RH WIND       PRES   REMARKS
BRANDON        MOCLDY    43  37  81 SW22G32   30.00S
DAUPHIN        PTCLDY    46  37  71 SW13G25   29.90R
ISLAND LAKE    MOCLDY    45  36  70 SE14      29.99F
PILOT MOUND      N/A     37  32  81 S18G25      N/A
THE PAS        CLOUDY    43  39  87 S15G23    29.59F
THOMPSON       LGT RAIN  43  39  87 SE7       29.71F
WINNIPEG       PTCLDY    41  36  81 S16       30.12F
LYNN LAKE      LGT RAIN  37  36  93 E14G22    29.58F
CHURCHILL      CLOUDY    25  23  93 E15G23    30.15F WCI  12
GILLAM         LGT RAIN  34  30  86 E7        29.96S
$$
                ***SASKATCHEWAN***

CITY           SKY/WX    TMP DP  RH WIND       PRES   REMARKS
ESTEVAN        MOCLDY    43  28  56 SW12      30.04R
KINDERSLEY     CLEAR     36  30  80 W18G28    29.96R
LLOYDMINSTER   CLEAR     36  28  75 W22G29    29.83R
PRINCE ALBERT  CLOUDY    39  36  87 W21G31    29.67R
REGINA         PTCLDY    37  32  81 W10       29.98R
YORKTON        CLOUDY    43  36  75 SW17G23   29.88R



USA.gov is the U.S. government's official web portal to all federal, state and local government web resources and services.